User: anonymous   Login
Location: C�an Torras
(41.5052°N, 1.9280°E)
Time: 17:50:06
(UTC+00:00)
Language:

COSMOS 2455 - Orbit

View from above orbital plane
View from above orbital plane
View from above satellite
View from above satellite

Ground track
Ground track

The orbit data is extracted from the following two-line orbital elements,

1 36095U 09063A   21113.17379062 -.00000042  00000-0  23802-4 0  9990
2 36095  67.1459 146.2593 0003625 257.2947 102.7733 13.96767876582603
Epoch (UTC): 23 April 2021 04:10:15
Eccentricity: 0.0003625
inclination: 67.1459°
perigee height: 902 km
apogee height: 907 km
right ascension of ascending node: 146.2593°
argument of perigee: 257.2947°
revolutions per day: 13.96767876
mean anomaly at epoch: 102.7733°
orbit number at epoch: 58260

The dashed part of the orbit path shows where the satellite is in the earth's shadow,  

DLR